SL-14 R/B

Satellite information

Favourite Embed

Satellite Type and Status

ROCKET BODYIN ORBIT

Key statistics

Satellite SL-14 R/B at a glance.

Uptime

11702

Days in orbit

Revolutions

≈ 12.5

Per day

Orbit

LEO

Low Earth Orbit

Inclination

82.6

Latest

Satellite identification and parameters

Extended collection of information and parameters for SL-14 R/B.

Object identification

Identified? True

Debris? False

Object name: SL-14 R/B

International designator: 1993-038G

Object number (NORAD): 22693

Object ID (CCSDS): 22693

Country: COMMONWEALTH OF INDEPENDENT STATES (CIS)

Current information (Y/N): Y

RCS size: LARGE

Orbital parameters

Period: 114.756 minutes

Inclination: 82.5837 deg

SMA: 7822.489 km

Apoapsis: 1480.462 km

Periapsis: 1408.246 km

RAAN: 206.175 deg

Eccentricy: 0.0046159

Argument of periapsis: 15.1282 deg

Mean anomaly: 158.1698 deg

Mean motion: 12.54831289 rev/day

Mean motion (dot): 0.00000025 rev/day2

B* drag term: 0.000088615 1/REarth

Two-line elements (TLE)

Creation date: July 8, 2025, 2:27 a.m.

Reference frame: TEME

Reference center: EARTH

Epoch: July 7, 2025, 7:19 p.m. UTC

TLE line 0: 0 SL-14 R/B

TLE line 1: 1 22693U 93038G 25188.80489257 .00000025 00000-0 88615-4 0 9991

TLE line 2: 2 22693 82.5837 206.1750 0046159 15.1282 158.1698 12.54831289467820

Live tracking on map

Real-time ground track for satellite SL-14 R/B.

In-orbit conjunctions

A list of the most updated potential collisions computed for object SL-14 R/B.

Target Orbit TCA Probability of collision Miss distance Type
FENGYUN 1C DEB SSO 2025-04-16 20:43:37 0.0001477495 89.0 (m) DEBRIS

Associated space launch

Second generation store-dump military communications satellites

SL-14 R/B was lifted into orbit during the mission ‘Tsiklon-3 | Strela-3 95 to 100’, on board a Tsiklon-3 space rocket.

The launch took place on June 24, 1993, 4:12 a.m. from 32/1.

For more information about the launch, click the button.

Launch to space Tsiklon-3 | Strela-3 95 to 100
Tsiklon-3 | Strela-3 95 to 100

Agency: N/A

Status: Launch Successful

Launch date: June 24, 1993, 4:12 a.m. UTC

Rocket: Tsiklon-3

Launch pad: 32/1

Location: Plesetsk Cosmodrome, Russian Federation

...

Latest news about this satellite

There are no fresh news available about this satellite. Check back as we update our databases every day.


Newsletter sign-up

Weekly statistics, charts and insights to help you stay on top of the space industry.